Date String (YYYY-MM-DD hh:mm:ss) UTC,Instrument flags,absolute air pressure of the measurement (hPa),sample flow rate (lpm),inlet stack bypass flow (lpm),air temperature of the measurement (°C),ambient temperature measured by the external sensor (°C),aerosol sample conditioner tube jacket temperature (°C),OPC LED temperature (°C),internal box temperature (°C),relative humidity of the measurement (%),span deviation,mass concentration of particles derived from Lorenz-Mie calculation of OPC scattering (μg/m³),mass concentration of particles derived from Lorenz-Mie calculation of OPC scattering (μg/m³),mass concentration of particles derived from Lorenz-Mie calculation of OPC scattering (μg/m³)
DateTimeUTC,F1_M11,P_M11,Q1_M11,Q2_M11,T1_M11,T2_M11,T3_M11,T4_M11,T5_M11,U1_M11,ZSPAN_M11,X0_M11,X2_M11,X1_M11
2023-12-02 17:00:00,SystemResetWarning,0822.7,4.99,000.00,018.7,017.5,000.0,027.3,020.0,12.5,0000.0,0001.39,0000.65,0000.50
2023-12-02 17:01:00,SystemResetWarning,0822.8,5.00,000.00,018.7,017.5,000.0,027.3,020.0,12.5,0000.0,0001.22,0000.64,0000.50
2023-12-02 17:02:00,SystemResetWarning,0822.6,5.01,000.00,018.7,017.5,000.0,027.3,020.0,12.5,0000.0,0001.16,0000.62,0000.49
2023-12-02 17:03:00,SystemResetWarning,0822.6,5.01,000.00,018.7,017.5,000.0,027.3,020.0,12.9,0000.0,0001.16,0000.62,0000.49
2023-12-02 17:04:00,SystemResetWarning,0822.6,4.99,000.00,018.7,017.6,000.0,027.3,020.0,12.9,0000.0,0001.09,0000.61,0000.48
2023-12-02 17:05:00,SystemResetWarning,0822.7,5.00,000.00,018.7,017.6,000.0,027.3,020.0,12.9,0000.0,0002.24,0000.64,0000.48
2023-12-02 17:06:00,SystemResetWarning,0822.7,4.99,000.00,018.7,017.6,000.0,027.3,020.0,12.6,0000.0,0002.46,0000.66,0000.48
2023-12-02 17:07:00,SystemResetWarning,0822.7,5.00,000.00,018.7,017.6,000.0,027.3,020.0,12.4,0000.0,0002.46,0000.66,0000.49
2023-12-02 17:08:00,SystemResetWarning,0822.7,5.00,000.00,018.7,017.6,000.0,027.3,020.0,12.3,0000.0,0002.45,0000.66,0000.49
2023-12-02 17:09:00,SystemResetWarning,0823.2,5.00,000.00,018.7,017.6,000.0,027.3,020.0,12.3,0000.0,0002.54,0000.69,0000.50
2023-12-02 17:10:00,SystemResetWarning,0822.9,5.01,000.00,018.7,017.5,000.0,027.3,020.0,12.7,0000.0,0002.52,0000.69,0000.51
2023-12-02 17:11:00,SystemResetWarning,0822.9,5.00,000.00,018.7,017.5,000.0,027.3,020.0,12.8,0000.0,0002.37,0000.68,0000.53
2023-12-02 17:12:00,SystemResetWarning,0823.1,5.00,000.00,018.7,017.5,000.0,027.3,020.0,13.1,0000.0,0002.40,0000.73,0000.54
2023-12-02 17:13:00,SystemResetWarning,0823.0,5.00,000.00,018.7,017.6,000.0,027.3,020.0,12.8,0000.0,0002.56,0000.77,0000.56
2023-12-02 17:14:00,SystemResetWarning,0822.9,4.99,000.00,018.7,017.6,000.0,027.2,020.0,13.2,0000.0,0003.10,0000.82,0000.58
2023-12-02 17:15:00,SystemResetWarning,0822.9,4.99,000.00,018.7,017.6,000.0,027.2,020.0,13.0,0000.0,0003.24,0000.86,0000.60
2023-12-02 17:16:00,SystemResetWarning,0823.0,5.00,000.00,018.7,017.6,000.0,027.2,020.0,12.8,0000.0,0002.44,0000.87,0000.61
2023-12-02 17:17:00,SystemResetWarning,0823.1,5.00,000.00,018.7,017.6,000.0,027.2,020.0,12.6,0000.0,0002.06,0000.89,0000.62
2023-12-02 17:18:00,SystemResetWarning,0822.8,5.00,000.00,018.7,017.5,000.0,027.2,020.0,12.6,0000.0,0002.09,0000.90,0000.63
2023-12-02 17:19:00,SystemResetWarning,0823.0,5.00,000.00,018.7,017.5,000.0,027.3,020.0,12.7,0000.0,0002.18,0000.94,0000.64
2023-12-02 17:20:00,SystemResetWarning,0822.9,5.01,000.00,018.7,017.5,000.0,027.3,020.0,12.5,0000.0,0002.10,0000.91,0000.64
2023-12-02 17:21:00,SystemResetWarning,0823.0,5.01,000.00,018.7,017.5,000.0,027.3,020.0,12.4,0000.0,0002.08,0000.91,0000.64
2023-12-02 17:22:00,SystemResetWarning,0823.0,4.99,000.00,018.7,017.5,000.0,027.2,020.0,12.7,0000.0,0002.13,0000.93,0000.65
2023-12-02 17:23:00,SystemResetWarning,0823.0,4.99,000.00,018.7,017.6,000.0,027.2,020.0,12.7,0000.0,0002.04,0000.89,0000.64
2023-12-02 17:24:00,SystemResetWarning,0823.1,4.99,000.00,018.7,017.6,000.0,027.2,020.0,12.7,0000.0,0001.98,0000.87,0000.65
2023-12-02 17:25:00,SystemResetWarning,0823.1,5.02,000.00,018.7,017.6,000.0,027.2,020.0,12.8,0000.0,0001.54,0000.85,0000.64
2023-12-02 17:26:00,SystemResetWarning,0823.1,5.00,000.00,018.7,017.6,000.0,027.2,020.0,12.7,0000.0,0001.42,0000.84,0000.65
2023-12-02 17:27:00,SystemResetWarning,0823.1,4.99,000.00,018.7,017.6,000.0,027.2,020.0,13.0,0000.0,0001.46,0000.85,0000.67
2023-12-02 17:28:00,SystemResetWarning,0823.0,4.99,000.00,018.7,017.6,000.0,027.2,020.0,13.1,0000.0,0001.35,0000.82,0000.66
2023-12-02 17:29:00,SystemResetWarning,0823.1,4.99,000.00,018.7,017.6,000.0,027.3,020.0,13.0,0000.0,0001.31,0000.80,0000.65
2023-12-02 17:30:00,SystemResetWarning,0823.1,5.01,000.00,018.7,017.5,000.0,027.3,020.0,13.1,0000.0,0001.23,0000.77,0000.64
2023-12-02 17:31:00,SystemResetWarning,0823.2,5.01,000.00,018.7,017.5,000.0,027.2,020.0,13.3,0000.0,0001.26,0000.79,0000.66
2023-12-02 17:32:00,SystemResetWarning,0823.2,5.01,000.00,018.7,017.5,000.0,027.2,020.0,13.3,0000.0,0001.27,0000.79,0000.66
2023-12-02 17:33:00,SystemResetWarning,0823.2,5.00,000.00,018.7,017.5,000.0,027.2,020.0,13.4,0000.0,0001.31,0000.80,0000.65
2023-12-02 17:34:00,SystemResetWarning,0823.2,4.99,000.00,018.7,017.5,000.0,027.2,020.0,13.3,0000.0,0001.46,0000.83,0000.65
2023-12-02 17:35:00,SystemResetWarning,0823.2,4.99,000.00,018.7,017.5,000.0,027.2,020.0,13.4,0000.0,0001.51,0000.85,0000.66
2023-12-02 17:36:00,SystemResetWarning,0823.2,5.00,000.00,018.7,017.5,000.0,027.2,020.0,13.6,0000.0,0001.51,0000.86,0000.66
2023-12-02 17:37:00,SystemResetWarning,0823.2,5.00,000.00,018.7,017.5,000.0,027.2,020.0,14.1,0000.0,0001.44,0000.85,0000.65
2023-12-02 17:38:00,SystemResetWarning,0823.2,5.00,000.00,018.7,017.5,000.0,027.2,020.0,13.8,0000.0,0001.33,0000.82,0000.64
2023-12-02 17:39:00,SystemResetWarning,0823.2,5.00,000.00,018.7,017.5,000.0,027.2,020.0,13.7,0000.0,0001.33,0000.82,0000.65
2023-12-02 17:40:00,SystemResetWarning,0823.1,5.00,000.00,018.7,017.5,000.0,027.2,020.0,13.9,0000.0,0001.45,0000.84,0000.66
2023-12-02 17:41:00,SystemResetWarning,0823.2,5.00,000.00,018.7,017.5,000.0,027.2,020.0,13.5,0000.0,0001.83,0000.86,0000.66
2023-12-02 17:42:00,SystemResetWarning,0823.2,5.00,000.00,018.6,017.4,000.0,027.3,020.0,13.5,0000.0,0002.12,0000.88,0000.64
2023-12-02 17:43:00,SystemResetWarning,0823.3,5.01,000.00,018.6,017.5,000.0,027.2,020.0,13.6,0000.0,0002.59,0000.90,0000.63
2023-12-02 17:44:00,SystemResetWarning,0823.2,5.00,000.00,018.6,017.5,000.0,027.2,020.0,13.5,0000.0,0003.20,0000.89,0000.63
2023-12-02 17:45:00,SystemResetWarning,0823.3,5.00,000.00,018.6,017.5,000.0,027.2,020.0,13.7,0000.0,0003.05,0000.85,0000.61
2023-12-02 17:46:00,SystemResetWarning,0823.3,4.99,000.00,018.6,017.5,000.0,027.2,020.0,14.2,0000.0,0003.12,0000.85,0000.60
2023-12-02 17:47:00,SystemResetWarning,0823.3,4.99,000.00,018.7,017.5,000.0,027.2,020.0,14.3,0000.0,0003.63,0000.84,0000.60
2023-12-02 17:48:00,SystemResetWarning,0823.3,4.99,000.00,018.7,017.5,000.0,027.2,020.0,13.8,0000.0,0003.83,0000.83,0000.58
2023-12-02 17:49:00,SystemResetWarning,0823.3,5.00,000.00,018.7,017.5,000.0,027.2,020.0,13.3,0000.0,0003.79,0000.81,0000.57
2023-12-02 17:50:00,SystemResetWarning,0823.3,5.01,000.00,018.7,017.5,000.0,027.2,020.0,13.2,0000.0,0003.79,0000.81,0000.56
2023-12-02 17:51:00,SystemResetWarning,0823.3,5.01,000.00,018.7,017.6,000.0,027.2,020.0,12.7,0000.0,0003.69,0000.79,0000.54
2023-12-02 17:52:00,SystemResetWarning,0823.3,4.99,000.00,018.7,017.5,000.0,027.2,020.0,12.4,0000.0,0003.55,0000.80,0000.54
2023-12-02 17:53:00,SystemResetWarning,0823.3,5.00,000.00,018.7,017.5,000.0,027.2,020.0,11.9,0000.0,0003.33,0000.77,0000.54
2023-12-02 17:54:00,SystemResetWarning,0823.3,5.00,000.00,018.7,017.5,000.0,027.2,020.0,11.8,0000.0,0002.88,0000.74,0000.54
2023-12-02 17:55:00,SystemResetWarning,0823.3,5.00,000.00,018.7,017.5,000.0,027.2,020.0,11.8,0000.0,0002.19,0000.73,0000.53
2023-12-02 17:56:00,SystemResetWarning,0823.3,5.00,000.00,018.7,017.5,000.0,027.2,020.0,11.6,0000.0,0002.60,0000.74,0000.52
2023-12-02 17:57:00,SystemResetWarning,0823.3,5.00,000.00,018.7,017.5,000.0,027.2,020.0,11.6,0000.0,0002.74,0000.74,0000.51
2023-12-02 17:58:00,SystemResetWarning,0823.4,5.00,000.00,018.7,017.6,000.0,027.2,020.0,11.8,0000.0,0002.24,0000.74,0000.49
2023-12-02 17:59:00,SystemResetWarning,0823.3,5.01,000.00,018.7,017.6,000.0,027.2,020.0,11.7,0000.0,0002.02,0000.72,0000.47
